Year,Month,Day,Hour,Minute,Value (Times are PST for barometer in hPa)
2013,09,30,00,00,985.27
2013,09,30,00,01,985.23
2013,09,30,00,02,985.18
2013,09,30,00,03,985.31
2013,09,30,00,04,985.44
2013,09,30,00,05,985.44
2013,09,30,00,06,985.47
2013,09,30,00,07,985.58
2013,09,30,00,08,985.68
2013,09,30,00,09,985.71
2013,09,30,00,10,985.78
2013,09,30,00,11,985.72
2013,09,30,00,12,985.85
2013,09,30,00,13,985.88
2013,09,30,00,14,985.85
2013,09,30,00,15,985.96
2013,09,30,00,16,986.01
2013,09,30,00,17,985.95
2013,09,30,00,18,985.91
2013,09,30,00,19,985.88
2013,09,30,00,20,985.89
2013,09,30,00,21,986.05
2013,09,30,00,22,986.07
2013,09,30,00,23,985.95
2013,09,30,00,24,986.02
2013,09,30,00,25,985.96
2013,09,30,00,26,985.81
2013,09,30,00,27,985.81
2013,09,30,00,28,985.84
2013,09,30,00,29,985.64
2013,09,30,00,30,985.58
2013,09,30,00,31,985.80
2013,09,30,00,32,985.95
2013,09,30,00,33,985.86
2013,09,30,00,34,985.63
2013,09,30,00,35,985.51
2013,09,30,00,36,985.58
2013,09,30,00,37,985.77
2013,09,30,00,38,985.69
2013,09,30,00,39,985.82
2013,09,30,00,40,985.96
2013,09,30,00,41,985.99
2013,09,30,00,42,985.75
2013,09,30,00,43,985.89
2013,09,30,00,44,986.08
2013,09,30,00,45,986.02
2013,09,30,00,46,986.08
2013,09,30,00,47,986.12
2013,09,30,00,48,986.05
2013,09,30,00,49,986.05
2013,09,30,00,50,986.13
2013,09,30,00,51,986.25
2013,09,30,00,52,986.24
2013,09,30,00,53,986.12
2013,09,30,00,54,986.18
2013,09,30,00,55,986.24
2013,09,30,00,56,986.48
2013,09,30,00,57,986.61
2013,09,30,00,58,986.51
2013,09,30,00,59,986.29
2013,09,30,01,00,986.40
2013,09,30,01,01,986.58
2013,09,30,01,02,986.80
2013,09,30,01,03,986.91
2013,09,30,01,04,986.76
2013,09,30,01,05,986.79
2013,09,30,01,06,986.76
2013,09,30,01,07,986.79
2013,09,30,01,08,986.83
2013,09,30,01,09,986.83
2013,09,30,01,10,986.78
2013,09,30,01,11,986.73
2013,09,30,01,12,986.73
2013,09,30,01,13,986.73
2013,09,30,01,14,986.76
2013,09,30,01,15,986.83
2013,09,30,01,16,986.76
2013,09,30,01,17,986.79
2013,09,30,01,18,986.83
2013,09,30,01,19,986.84
2013,09,30,01,20,987.11
2013,09,30,01,21,987.18
2013,09,30,01,22,987.23
2013,09,30,01,23,987.19
2013,09,30,01,24,987.04
2013,09,30,01,25,987.13
2013,09,30,01,26,987.21
2013,09,30,01,27,987.34
2013,09,30,01,28,987.36
2013,09,30,01,29,987.22
2013,09,30,01,30,987.02
2013,09,30,01,31,986.87
2013,09,30,01,32,986.95
2013,09,30,01,33,987.13
2013,09,30,01,34,987.20
2013,09,30,01,35,987.11
2013,09,30,01,36,986.97
2013,09,30,01,37,987.13
2013,09,30,01,38,987.40
2013,09,30,01,39,987.43
2013,09,30,01,40,987.27
2013,09,30,01,41,987.23
2013,09,30,01,42,987.27
2013,09,30,01,43,987.34
2013,09,30,01,44,987.38
2013,09,30,01,45,987.55
2013,09,30,01,46,987.70
2013,09,30,01,47,987.64
2013,09,30,01,48,987.64
2013,09,30,01,49,987.67
2013,09,30,01,50,987.60
2013,09,30,01,51,987.51
2013,09,30,01,52,987.53
2013,09,30,01,53,987.81
2013,09,30,01,54,987.81
2013,09,30,01,55,987.84
2013,09,30,01,56,987.88
2013,09,30,01,57,987.84
2013,09,30,01,58,987.91
2013,09,30,01,59,987.98
2013,09,30,02,00,987.95
2013,09,30,02,01,987.97
2013,09,30,02,02,988.10
2013,09,30,02,03,987.98
2013,09,30,02,04,987.95
2013,09,30,02,05,987.98
2013,09,30,02,06,987.98
2013,09,30,02,07,987.96
2013,09,30,02,08,987.78
2013,09,30,02,09,987.89
2013,09,30,02,10,988.05
2013,09,30,02,11,988.10
2013,09,30,02,12,988.01
2013,09,30,02,13,988.05
2013,09,30,02,14,988.07
2013,09,30,02,15,987.91
2013,09,30,02,16,987.98
2013,09,30,02,17,988.02
2013,09,30,02,18,988.11
2013,09,30,02,19,988.18
2013,09,30,02,20,988.17
2013,09,30,02,21,988.08
2013,09,30,02,22,988.11
2013,09,30,02,23,988.09
2013,09,30,02,24,988.15
2013,09,30,02,25,988.17
2013,09,30,02,26,988.01
2013,09,30,02,27,988.01
2013,09,30,02,28,987.98
2013,09,30,02,29,987.92
2013,09,30,02,30,988.01
2013,09,30,02,31,988.05
2013,09,30,02,32,988.08
2013,09,30,02,33,988.09
2013,09,30,02,34,988.23
2013,09,30,02,35,988.41
2013,09,30,02,36,988.24
2013,09,30,02,37,988.20
2013,09,30,02,38,988.36
2013,09,30,02,39,988.50
2013,09,30,02,40,988.61
2013,09,30,02,41,988.52
2013,09,30,02,42,988.38
2013,09,30,02,43,988.03
2013,09,30,02,44,988.36
2013,09,30,02,45,988.54
2013,09,30,02,46,988.70
2013,09,30,02,47,988.88
2013,09,30,02,48,988.82
2013,09,30,02,49,988.72
2013,09,30,02,50,988.70
2013,09,30,02,51,988.80
2013,09,30,02,52,988.95
2013,09,30,02,53,988.79
2013,09,30,02,54,988.72
2013,09,30,02,55,988.69
2013,09,30,02,56,988.69
2013,09,30,02,57,988.69
2013,09,30,02,58,988.68
2013,09,30,02,59,988.53
2013,09,30,03,00,988.69
2013,09,30,03,01,988.70
2013,09,30,03,02,988.86
2013,09,30,03,03,988.94
2013,09,30,03,04,989.00
2013,09,30,03,05,989.06
2013,09,30,03,06,989.10
2013,09,30,03,07,989.13
2013,09,30,03,08,989.16
2013,09,30,03,09,989.13
2013,09,30,03,10,989.16
2013,09,30,03,11,989.20
2013,09,30,03,12,989.23
2013,09,30,03,13,989.30
2013,09,30,03,14,989.30
2013,09,30,03,15,989.31
2013,09,30,03,16,989.47
2013,09,30,03,17,989.46
2013,09,30,03,18,989.36
2013,09,30,03,19,989.23
2013,09,30,03,20,989.27
2013,09,30,03,21,989.31
2013,09,30,03,22,989.44
2013,09,30,03,23,989.41
2013,09,30,03,24,989.57
2013,09,30,03,25,989.60
2013,09,30,03,26,989.60
2013,09,30,03,27,989.64
2013,09,30,03,28,989.64
2013,09,30,03,29,989.68
2013,09,30,03,30,989.81
2013,09,30,03,31,989.84
2013,09,30,03,32,989.94
2013,09,30,03,33,989.95
2013,09,30,03,34,990.04
2013,09,30,03,35,990.08
2013,09,30,03,36,990.11
2013,09,30,03,37,990.16
2013,09,30,03,38,990.25
2013,09,30,03,39,990.21
2013,09,30,03,40,990.18
2013,09,30,03,41,990.18
2013,09,30,03,42,990.18
2013,09,30,03,43,990.27
2013,09,30,03,44,990.19
2013,09,30,03,45,990.36
2013,09,30,03,46,990.48
2013,09,30,03,47,990.35
2013,09,30,03,48,990.32
2013,09,30,03,49,990.29
2013,09,30,03,50,990.44
2013,09,30,03,51,990.36
2013,09,30,03,52,990.21
2013,09,30,03,53,990.25
2013,09,30,03,54,990.28
2013,09,30,03,55,990.24
2013,09,30,03,56,990.17
2013,09,30,03,57,990.09
2013,09,30,03,58,990.25
2013,09,30,03,59,990.26
2013,09,30,04,00,990.32
2013,09,30,04,01,990.45
2013,09,30,04,02,990.49
2013,09,30,04,03,990.55
2013,09,30,04,04,990.49
2013,09,30,04,05,990.52
2013,09,30,04,06,990.52
2013,09,30,04,07,990.56
2013,09,30,04,08,990.72
2013,09,30,04,09,990.72
2013,09,30,04,10,990.69
2013,09,30,04,11,990.76
2013,09,30,04,12,990.79
2013,09,30,04,13,990.72
2013,09,30,04,14,990.77
2013,09,30,04,15,990.89
2013,09,30,04,16,990.89
2013,09,30,04,17,990.86
2013,09,30,04,18,990.87
2013,09,30,04,19,990.96
2013,09,30,04,20,990.99
2013,09,30,04,21,991.02
2013,09,30,04,22,990.89
2013,09,30,04,23,990.83
2013,09,30,04,24,990.96
2013,09,30,04,25,990.93
2013,09,30,04,26,990.96
2013,09,30,04,27,990.99
2013,09,30,04,28,991.03
2013,09,30,04,29,991.03
2013,09,30,04,30,991.10
2013,09,30,04,31,991.20
2013,09,30,04,32,991.21
2013,09,30,04,33,991.30
2013,09,30,04,34,991.26
2013,09,30,04,35,991.33
2013,09,30,04,36,991.37
2013,09,30,04,37,991.37
2013,09,30,04,38,991.43
2013,09,30,04,39,991.47
2013,09,30,04,40,991.47
2013,09,30,04,41,991.50
2013,09,30,04,42,991.47
2013,09,30,04,43,991.43
2013,09,30,04,44,991.47
2013,09,30,04,45,991.43
2013,09,30,04,46,991.53
2013,09,30,04,47,991.47
2013,09,30,04,48,991.47
2013,09,30,04,49,991.50
2013,09,30,04,50,991.50
2013,09,30,04,51,991.53
2013,09,30,04,52,991.57
2013,09,30,04,53,991.60
2013,09,30,04,54,991.58
2013,09,30,04,55,991.70
2013,09,30,04,56,991.67
2013,09,30,04,57,991.64
2013,09,30,04,58,991.67
2013,09,30,04,59,991.67
2013,09,30,05,00,991.71
2013,09,30,05,01,991.80
2013,09,30,05,02,991.71
2013,09,30,05,03,991.84
2013,09,30,05,04,991.81
2013,09,30,05,05,991.81
2013,09,30,05,06,991.81
2013,09,30,05,07,991.84
2013,09,30,05,08,991.95
2013,09,30,05,09,992.04
2013,09,30,05,10,992.02
2013,09,30,05,11,992.14
2013,09,30,05,12,992.15
2013,09,30,05,13,992.25
2013,09,30,05,14,992.28
2013,09,30,05,15,992.31
2013,09,30,05,16,992.38
2013,09,30,05,17,992.35
2013,09,30,05,18,992.38
2013,09,30,05,19,992.38
2013,09,30,05,20,992.45
2013,09,30,05,21,992.48
2013,09,30,05,22,992.53
2013,09,30,05,23,992.62
2013,09,30,05,24,992.62
2013,09,30,05,25,992.69
2013,09,30,05,26,992.72
2013,09,30,05,27,992.72
2013,09,30,05,28,992.75
2013,09,30,05,29,992.72
2013,09,30,05,30,992.75
2013,09,30,05,31,992.72
2013,09,30,05,32,992.79
2013,09,30,05,33,992.79
2013,09,30,05,34,992.82
2013,09,30,05,35,992.82
2013,09,30,05,36,992.79
2013,09,30,05,37,992.89
2013,09,30,05,38,992.79
2013,09,30,05,39,992.79
2013,09,30,05,40,992.89
2013,09,30,05,41,992.82
2013,09,30,05,42,992.89
2013,09,30,05,43,992.92
2013,09,30,05,44,992.92
2013,09,30,05,45,992.92
2013,09,30,05,46,992.99
2013,09,30,05,47,992.96
2013,09,30,05,48,992.99
2013,09,30,05,49,993.07
2013,09,30,05,50,993.16
2013,09,30,05,51,993.19
2013,09,30,05,52,993.19
2013,09,30,05,53,993.23
2013,09,30,05,54,993.30
2013,09,30,05,55,993.33
2013,09,30,05,56,993.33
2013,09,30,05,57,993.33
2013,09,30,05,58,993.36
2013,09,30,05,59,993.36
2013,09,30,06,00,993.33
2013,09,30,06,01,993.36
2013,09,30,06,02,993.43
2013,09,30,06,03,993.40
2013,09,30,06,04,993.47
2013,09,30,06,05,993.53
2013,09,30,06,06,993.53
2013,09,30,06,07,993.53
2013,09,30,06,08,993.47
2013,09,30,06,09,993.53
2013,09,30,06,10,993.50
2013,09,30,06,11,993.51
2013,09,30,06,12,993.63
2013,09,30,06,13,993.67
2013,09,30,06,14,993.70
2013,09,30,06,15,993.67
2013,09,30,06,16,993.70
2013,09,30,06,17,993.77
2013,09,30,06,18,993.70
2013,09,30,06,19,993.77
2013,09,30,06,20,993.84
2013,09,30,06,21,993.80
2013,09,30,06,22,993.77
2013,09,30,06,23,993.80
2013,09,30,06,24,993.87
2013,09,30,06,25,993.91
2013,09,30,06,26,993.97
2013,09,30,06,27,994.07
2013,09,30,06,28,994.11
2013,09,30,06,29,994.04
2013,09,30,06,30,994.14
2013,09,30,06,31,994.05
2013,09,30,06,32,994.18
2013,09,30,06,33,994.25
2013,09,30,06,34,994.35
2013,09,30,06,35,994.35
2013,09,30,06,36,994.38
2013,09,30,06,37,994.45
2013,09,30,06,38,994.52
2013,09,30,06,39,994.48
2013,09,30,06,40,994.55
2013,09,30,06,41,994.62
2013,09,30,06,42,994.62
2013,09,30,06,43,994.58
2013,09,30,06,44,994.62
2013,09,30,06,45,994.65
2013,09,30,06,46,994.68
2013,09,30,06,47,994.72
2013,09,30,06,48,994.68
2013,09,30,06,49,994.75
2013,09,30,06,50,994.75
2013,09,30,06,51,994.72
2013,09,30,06,52,994.75
2013,09,30,06,53,994.72
2013,09,30,06,54,994.72
2013,09,30,06,55,994.68
2013,09,30,06,56,994.65
2013,09,30,06,57,994.72
2013,09,30,06,58,994.72
2013,09,30,06,59,994.72
2013,09,30,07,00,994.68
2013,09,30,07,01,994.72
2013,09,30,07,02,994.75
2013,09,30,07,03,994.79
2013,09,30,07,04,994.72
2013,09,30,07,05,994.75
2013,09,30,07,06,994.68
2013,09,30,07,07,994.72
2013,09,30,07,08,994.79
2013,09,30,07,09,994.85
2013,09,30,07,10,994.79
2013,09,30,07,11,994.80
2013,09,30,07,12,994.92
2013,09,30,07,13,994.89
2013,09,30,07,14,994.85
2013,09,30,07,15,994.92
2013,09,30,07,16,994.89
2013,09,30,07,17,994.92
2013,09,30,07,18,994.92
2013,09,30,07,19,994.92
2013,09,30,07,20,995.02
2013,09,30,07,21,995.02
2013,09,30,07,22,995.06
2013,09,30,07,23,995.06
2013,09,30,07,24,995.12
2013,09,30,07,25,995.23
2013,09,30,07,26,995.26
2013,09,30,07,27,995.26
2013,09,30,07,28,995.26
2013,09,30,07,29,995.16
2013,09,30,07,30,995.19
2013,09,30,07,31,995.26
2013,09,30,07,32,995.26
2013,09,30,07,33,995.33
2013,09,30,07,34,995.33
2013,09,30,07,35,995.33
2013,09,30,07,36,995.33
2013,09,30,07,37,995.36
2013,09,30,07,38,995.36
2013,09,30,07,39,995.43
2013,09,30,07,40,995.43
2013,09,30,07,41,995.46
2013,09,30,07,42,995.53
2013,09,30,07,43,995.46
2013,09,30,07,44,995.46
2013,09,30,07,45,995.53
2013,09,30,07,46,995.50
2013,09,30,07,47,995.50
2013,09,30,07,48,995.46
2013,09,30,07,49,995.46
2013,09,30,07,50,995.50
2013,09,30,07,51,995.53
2013,09,30,07,52,995.63
2013,09,30,07,53,995.73
2013,09,30,07,54,995.84
2013,09,30,07,55,995.77
2013,09,30,07,56,995.67
2013,09,30,07,57,995.67
2013,09,30,07,58,995.60
2013,09,30,07,59,995.67
2013,09,30,08,00,995.77
2013,09,30,08,01,995.80
2013,09,30,08,02,995.87
2013,09,30,08,03,995.90
2013,09,30,08,04,995.88
2013,09,30,08,05,996.01
2013,09,30,08,06,996.01
2013,09,30,08,07,996.07
2013,09,30,08,08,996.07
2013,09,30,08,09,996.08
2013,09,30,08,10,996.21
2013,09,30,08,11,996.28
2013,09,30,08,12,996.34
2013,09,30,08,13,996.34
2013,09,30,08,14,996.41
2013,09,30,08,15,996.41
2013,09,30,08,16,996.38
2013,09,30,08,17,996.38
2013,09,30,08,18,996.38
2013,09,30,08,19,996.34
2013,09,30,08,20,996.31
2013,09,30,08,21,996.34
2013,09,30,08,22,996.34
2013,09,30,08,23,996.35
2013,09,30,08,24,996.48
2013,09,30,08,25,996.55
2013,09,30,08,26,996.61
2013,09,30,08,27,996.61
2013,09,30,08,28,996.61
2013,09,30,08,29,996.61
2013,09,30,08,30,996.61
2013,09,30,08,31,996.58
2013,09,30,08,32,996.48
2013,09,30,08,33,996.45
2013,09,30,08,34,996.49
2013,09,30,08,35,996.61
2013,09,30,08,36,996.58
2013,09,30,08,37,996.58
2013,09,30,08,38,996.61
2013,09,30,08,39,996.67
2013,09,30,08,40,996.58
2013,09,30,08,41,996.59
2013,09,30,08,42,996.72
2013,09,30,08,43,996.75
2013,09,30,08,44,996.72
2013,09,30,08,45,996.78
2013,09,30,08,46,996.75
2013,09,30,08,47,996.82
2013,09,30,08,48,996.90
2013,09,30,08,49,996.99
2013,09,30,08,50,997.02
2013,09,30,08,51,997.09
2013,09,30,08,52,997.02
2013,09,30,08,53,997.02
2013,09,30,08,54,996.95
2013,09,30,08,55,996.95
2013,09,30,08,56,996.99
2013,09,30,08,57,997.05
2013,09,30,08,58,997.09
2013,09,30,08,59,997.19
2013,09,30,09,00,997.22
2013,09,30,09,01,997.22
2013,09,30,09,02,997.26
2013,09,30,09,03,997.26
2013,09,30,09,04,997.19
2013,09,30,09,05,997.22
2013,09,30,09,06,997.19
2013,09,30,09,07,997.29
2013,09,30,09,08,997.40
2013,09,30,09,09,997.53
2013,09,30,09,10,997.56
2013,09,30,09,11,997.60
2013,09,30,09,12,997.59
2013,09,30,09,13,997.46
2013,09,30,09,14,997.43
2013,09,30,09,15,997.39
2013,09,30,09,16,997.33
2013,09,30,09,17,997.26
2013,09,30,09,18,997.26
2013,09,30,09,19,997.29
2013,09,30,09,20,997.33
2013,09,30,09,21,997.29
2013,09,30,09,22,997.39
2013,09,30,09,23,997.43
2013,09,30,09,24,997.53
2013,09,30,09,25,997.56
2013,09,30,09,26,997.56
2013,09,30,09,27,997.53
2013,09,30,09,28,997.56
2013,09,30,09,29,997.56
2013,09,30,09,30,997.50
2013,09,30,09,31,997.50
2013,09,30,09,32,997.56
2013,09,30,09,33,997.56
2013,09,30,09,34,997.56
2013,09,30,09,35,997.56
2013,09,30,09,36,997.60
2013,09,30,09,37,997.56
2013,09,30,09,38,997.66
2013,09,30,09,39,997.66
2013,09,30,09,40,997.66
2013,09,30,09,41,997.70
2013,09,30,09,42,997.70
2013,09,30,09,43,997.77
2013,09,30,09,44,997.80
2013,09,30,09,45,997.77
2013,09,30,09,46,997.73
2013,09,30,09,47,997.70
2013,09,30,09,48,997.77
2013,09,30,09,49,997.78
2013,09,30,09,50,997.87
2013,09,30,09,51,997.90
2013,09,30,09,52,997.95
2013,09,30,09,53,998.04
2013,09,30,09,54,998.04
2013,09,30,09,55,998.07
2013,09,30,09,56,998.10
2013,09,30,09,57,998.07
2013,09,30,09,58,998.14
2013,09,30,09,59,998.07
2013,09,30,10,00,998.04
2013,09,30,10,01,998.11
2013,09,30,10,02,998.21
2013,09,30,10,03,998.27
2013,09,30,10,04,998.31
2013,09,30,10,05,998.38
2013,09,30,10,06,998.34
2013,09,30,10,07,998.38
2013,09,30,10,08,998.38
2013,09,30,10,09,998.41
2013,09,30,10,10,998.38
2013,09,30,10,11,998.38
2013,09,30,10,12,998.34
2013,09,30,10,13,998.27
2013,09,30,10,14,998.24
2013,09,30,10,15,998.24
2013,09,30,10,16,998.34
2013,09,30,10,17,998.39
2013,09,30,10,18,998.48
2013,09,30,10,19,998.54
2013,09,30,10,20,998.68
2013,09,30,10,21,998.71
2013,09,30,10,22,998.78
2013,09,30,10,23,998.85
2013,09,30,10,24,998.85
2013,09,30,10,25,998.92
2013,09,30,10,26,998.95
2013,09,30,10,27,999.02
2013,09,30,10,28,998.99
2013,09,30,10,29,999.05
2013,09,30,10,30,999.05
2013,09,30,10,31,999.05
2013,09,30,10,32,999.05
2013,09,30,10,33,999.09
2013,09,30,10,34,999.05
2013,09,30,10,35,999.09
2013,09,30,10,36,999.09
2013,09,30,10,37,999.09
2013,09,30,10,38,999.12
2013,09,30,10,39,999.15
2013,09,30,10,40,999.15
2013,09,30,10,41,999.26
2013,09,30,10,42,999.29
2013,09,30,10,43,999.28
2013,09,30,10,44,999.19
2013,09,30,10,45,999.15
2013,09,30,10,46,999.20
2013,09,30,10,47,999.32
2013,09,30,10,48,999.32
2013,09,30,10,49,999.39
2013,09,30,10,50,999.36
2013,09,30,10,51,999.39
2013,09,30,10,52,999.32
2013,09,30,10,53,999.36
2013,09,30,10,54,999.36
2013,09,30,10,55,999.36
2013,09,30,10,56,999.31
2013,09,30,10,57,999.19
2013,09,30,10,58,999.22
2013,09,30,10,59,999.19
2013,09,30,11,00,999.19
2013,09,30,11,01,999.19
2013,09,30,11,02,999.12
2013,09,30,11,03,999.15
2013,09,30,11,04,999.15
2013,09,30,11,05,999.15
2013,09,30,11,06,999.19
2013,09,30,11,07,999.19
2013,09,30,11,08,999.12
2013,09,30,11,09,999.12
2013,09,30,11,10,999.15
2013,09,30,11,11,999.12
2013,09,30,11,12,999.09
2013,09,30,11,13,999.09
2013,09,30,11,14,999.05
2013,09,30,11,15,999.09
2013,09,30,11,16,999.12
2013,09,30,11,17,999.12
2013,09,30,11,18,999.12
2013,09,30,11,19,999.12
2013,09,30,11,20,999.12
2013,09,30,11,21,999.15
2013,09,30,11,22,999.12
2013,09,30,11,23,999.12
2013,09,30,11,24,999.19
2013,09,30,11,25,999.26
2013,09,30,11,26,999.26
2013,09,30,11,27,999.22
2013,09,30,11,28,999.15
2013,09,30,11,29,999.19
2013,09,30,11,30,999.26
2013,09,30,11,31,999.32
2013,09,30,11,32,999.39
2013,09,30,11,33,999.36
2013,09,30,11,34,999.43
2013,09,30,11,35,999.43
2013,09,30,11,36,999.49
2013,09,30,11,37,999.46
2013,09,30,11,38,999.43
2013,09,30,11,39,999.46
2013,09,30,11,40,999.49
2013,09,30,11,41,999.56
2013,09,30,11,42,999.59
2013,09,30,11,43,999.59
2013,09,30,11,44,999.63
2013,09,30,11,45,999.66
2013,09,30,11,46,999.66
2013,09,30,11,47,999.70
2013,09,30,11,48,999.70
2013,09,30,11,49,999.66
2013,09,30,11,50,999.66
2013,09,30,11,51,999.63
2013,09,30,11,52,999.63
2013,09,30,11,53,999.63
2013,09,30,11,54,999.66
2013,09,30,11,55,999.76
2013,09,30,11,56,999.80
2013,09,30,11,57,999.80
2013,09,30,11,58,999.76
2013,09,30,11,59,999.81
2013,09,30,12,00,999.93
2013,09,30,12,01,999.93
2013,09,30,12,02,999.90
2013,09,30,12,03,999.79
2013,09,30,12,04,999.70
2013,09,30,12,05,999.76
2013,09,30,12,06,999.76
2013,09,30,12,07,999.73
2013,09,30,12,08,999.73
2013,09,30,12,09,999.76
2013,09,30,12,10,999.80
2013,09,30,12,11,999.80
2013,09,30,12,12,999.80
2013,09,30,12,13,999.87
2013,09,30,12,14,999.90
2013,09,30,12,15,999.90
2013,09,30,12,16,999.97
2013,09,30,12,17,999.93
2013,09,30,12,18,1000.00
2013,09,30,12,19,1000.04
2013,09,30,12,20,1000.17
2013,09,30,12,21,1000.13
2013,09,30,12,22,1000.00
2013,09,30,12,23,999.97
2013,09,30,12,24,999.97
2013,09,30,12,25,1000.07
2013,09,30,12,26,1000.00
2013,09,30,12,27,1000.00
2013,09,30,12,28,1000.03
2013,09,30,12,29,1000.25
2013,09,30,12,30,1000.37
2013,09,30,12,31,1000.37
2013,09,30,12,32,1000.41
2013,09,30,12,33,1000.37
2013,09,30,12,34,1000.40
2013,09,30,12,35,1000.27
2013,09,30,12,36,1000.27
2013,09,30,12,37,1000.31
2013,09,30,12,38,1000.34
2013,09,30,12,39,1000.34
2013,09,30,12,40,1000.34
2013,09,30,12,41,1000.31
2013,09,30,12,42,1000.41
2013,09,30,12,43,1000.41
2013,09,30,12,44,1000.48
2013,09,30,12,45,1000.51
2013,09,30,12,46,1000.68
2013,09,30,12,47,1000.75
2013,09,30,12,48,1000.68
2013,09,30,12,49,1000.71
2013,09,30,12,50,1000.61
2013,09,30,12,51,1000.54
2013,09,30,12,52,1000.61
2013,09,30,12,53,1000.64
2013,09,30,12,54,1000.75
2013,09,30,12,55,1000.78
2013,09,30,12,56,1000.85
2013,09,30,12,57,1000.92
2013,09,30,12,58,1000.88
2013,09,30,12,59,1000.95
2013,09,30,13,00,1000.81
2013,09,30,13,01,1000.71
2013,09,30,13,02,1000.71
2013,09,30,13,03,1000.68
2013,09,30,13,04,1000.71
2013,09,30,13,05,1000.68
2013,09,30,13,06,1000.74
2013,09,30,13,07,1000.64
2013,09,30,13,08,1000.64
2013,09,30,13,09,1000.68
2013,09,30,13,10,1000.61
2013,09,30,13,11,1000.61
2013,09,30,13,12,1000.64
2013,09,30,13,13,1000.75
2013,09,30,13,14,1000.80
2013,09,30,13,15,1000.71
2013,09,30,13,16,1000.71
2013,09,30,13,17,1000.75
2013,09,30,13,18,1000.75
2013,09,30,13,19,1000.75
2013,09,30,13,20,1000.75
2013,09,30,13,21,1000.75
2013,09,30,13,22,1000.75
2013,09,30,13,23,1000.78
2013,09,30,13,24,1000.81
2013,09,30,13,25,1000.81
2013,09,30,13,26,1000.81
2013,09,30,13,27,1000.85
2013,09,30,13,28,1000.92
2013,09,30,13,29,1000.92
2013,09,30,13,30,1001.02
2013,09,30,13,31,1000.92
2013,09,30,13,32,1000.95
2013,09,30,13,33,1000.98
2013,09,30,13,34,1001.02
2013,09,30,13,35,1000.98
2013,09,30,13,36,1001.05
2013,09,30,13,37,1001.02
2013,09,30,13,38,1001.02
2013,09,30,13,39,1001.08
2013,09,30,13,40,1001.15
2013,09,30,13,41,1001.15
2013,09,30,13,42,1001.08
2013,09,30,13,43,1001.08
2013,09,30,13,44,1001.15
2013,09,30,13,45,1001.15
2013,09,30,13,46,1001.22
2013,09,30,13,47,1001.22
2013,09,30,13,48,1001.32
2013,09,30,13,49,1001.32
2013,09,30,13,50,1001.29
2013,09,30,13,51,1001.29
2013,09,30,13,52,1001.32
2013,09,30,13,53,1001.32
2013,09,30,13,54,1001.29
2013,09,30,13,55,1001.29
2013,09,30,13,56,1001.32
2013,09,30,13,57,1001.36
2013,09,30,13,58,1001.29
2013,09,30,13,59,1001.29
2013,09,30,14,00,1001.29
2013,09,30,14,01,1001.29
2013,09,30,14,02,1001.32
2013,09,30,14,03,1001.29
2013,09,30,14,04,1001.25
2013,09,30,14,05,1001.09
2013,09,30,14,06,1001.19
2013,09,30,14,07,1001.47
2013,09,30,14,08,1001.59
2013,09,30,14,09,1001.63
2013,09,30,14,10,1001.63
2013,09,30,14,11,1001.63
2013,09,30,14,12,1001.66
2013,09,30,14,13,1001.69
2013,09,30,14,14,1001.62
2013,09,30,14,15,1001.52
2013,09,30,14,16,1001.57
2013,09,30,14,17,1001.66
2013,09,30,14,18,1001.52
2013,09,30,14,19,1001.46
2013,09,30,14,20,1001.36
2013,09,30,14,21,1001.32
2013,09,30,14,22,1001.32
2013,09,30,14,23,1001.25
2013,09,30,14,24,1001.29
2013,09,30,14,25,1001.29
2013,09,30,14,26,1001.36
2013,09,30,14,27,1001.39
2013,09,30,14,28,1001.52
2013,09,30,14,29,1001.66
2013,09,30,14,30,1001.63
2013,09,30,14,31,1001.59
2013,09,30,14,32,1001.59
2013,09,30,14,33,1001.59
2013,09,30,14,34,1001.66
2013,09,30,14,35,1001.69
2013,09,30,14,36,1001.66
2013,09,30,14,37,1001.69
2013,09,30,14,38,1001.80
2013,09,30,14,39,1001.76
2013,09,30,14,40,1001.83
2013,09,30,14,41,1001.90
2013,09,30,14,42,1002.00
2013,09,30,14,43,1002.10
2013,09,30,14,44,1002.07
2013,09,30,14,45,1002.20
2013,09,30,14,46,1002.30
2013,09,30,14,47,1002.30
2013,09,30,14,48,1002.30
2013,09,30,14,49,1002.30
2013,09,30,14,50,1002.34
2013,09,30,14,51,1002.37
2013,09,30,14,52,1002.34
2013,09,30,14,53,1002.34
2013,09,30,14,54,1002.30
2013,09,30,14,55,1002.24
2013,09,30,14,56,1002.17
2013,09,30,14,57,1002.24
2013,09,30,14,58,1002.34
2013,09,30,14,59,1002.30
2013,09,30,15,00,1002.34
2013,09,30,15,01,1002.36
2013,09,30,15,02,1002.27
2013,09,30,15,03,1002.34
2013,09,30,15,04,1002.34
2013,09,30,15,05,1002.34
2013,09,30,15,06,1002.27
2013,09,30,15,07,1002.17
2013,09,30,15,08,1002.07
2013,09,30,15,09,1002.10
2013,09,30,15,10,1002.13
2013,09,30,15,11,1002.17
2013,09,30,15,12,1002.27
2013,09,30,15,13,1002.27
2013,09,30,15,14,1002.34
2013,09,30,15,15,1002.34
2013,09,30,15,16,1002.30
2013,09,30,15,17,1002.30
2013,09,30,15,18,1002.34
2013,09,30,15,19,1002.34
2013,09,30,15,20,1002.27
2013,09,30,15,21,1002.27
2013,09,30,15,22,1002.34
2013,09,30,15,23,1002.34
2013,09,30,15,24,1002.30
2013,09,30,15,25,1002.27
2013,09,30,15,26,1002.27
2013,09,30,15,27,1002.34
2013,09,30,15,28,1002.30
2013,09,30,15,29,1002.34
2013,09,30,15,30,1002.37
2013,09,30,15,31,1002.37
2013,09,30,15,32,1002.37
2013,09,30,15,33,1002.34
2013,09,30,15,34,1002.27
2013,09,30,15,35,1002.41
2013,09,30,15,36,1002.47
2013,09,30,15,37,1002.51
2013,09,30,15,38,1002.51
2013,09,30,15,39,1002.54
2013,09,30,15,40,1002.54
2013,09,30,15,41,1002.64
2013,09,30,15,42,1002.68
2013,09,30,15,43,1002.78
2013,09,30,15,44,1002.88
2013,09,30,15,45,1002.85
2013,09,30,15,46,1002.98
2013,09,30,15,47,1002.95
2013,09,30,15,48,1002.98
2013,09,30,15,49,1003.02
2013,09,30,15,50,1003.12
2013,09,30,15,51,1003.12
2013,09,30,15,52,1003.15
2013,09,30,15,53,1003.05
2013,09,30,15,54,1003.08
2013,09,30,15,55,1003.08
2013,09,30,15,56,1003.05
2013,09,30,15,57,1003.01
2013,09,30,15,58,1002.91
2013,09,30,15,59,1002.91
2013,09,30,16,00,1002.85
2013,09,30,16,01,1002.85
2013,09,30,16,02,1002.91
2013,09,30,16,03,1002.95
2013,09,30,16,04,1002.95
2013,09,30,16,05,1002.88
2013,09,30,16,06,1002.85
2013,09,30,16,07,1002.81
2013,09,30,16,08,1002.95
2013,09,30,16,09,1002.91
2013,09,30,16,10,1002.88
2013,09,30,16,11,1002.85
2013,09,30,16,12,1002.85
2013,09,30,16,13,1002.85
2013,09,30,16,14,1002.78
2013,09,30,16,15,1002.71
2013,09,30,16,16,1002.81
2013,09,30,16,17,1002.88
2013,09,30,16,18,1002.78
2013,09,30,16,19,1002.68
2013,09,30,16,20,1002.78
2013,09,30,16,21,1002.88
2013,09,30,16,22,1002.91
2013,09,30,16,23,1002.88
2013,09,30,16,24,1002.85
2013,09,30,16,25,1002.81